Track TATIANA 2 now! 10-day predictions TATIANA 2 is classified as:
1 35868U 09049D 22148.52563972 .00000138 00000-0 80040-4 0 9996 2 35868 98.5095 120.5171 0002899 252.5093 107.5769 14.23002072659106